Orbital Elements at Epoch 2459200.5 (2020-Dec-17.0) TDB
Reference: JPL 27 (heliocentric ecliptic J2000)
Element | Value | Uncertainty (1-sigma) | Units |
e | .1368104631707204 | 4.0719e-08 | |
a | 2.408798864318128 | 9.2166e-09 | au |
q | 2.07924997600566 | 9.7137e-08 | au |
i | 1.663220068816845 | 3.4572e-06 | deg |
node | 300.6234963794432 | 0.00015758 | deg |
peri | 266.4997830097013 | 0.0001581 | deg |
M | 199.2235388462591 | 1.4634e-05 | deg |
tp | 2459810.344621476436 (2022-Aug-18.84462148) | 5.7233e-05 | TDB |
period | 1365.523672781801 3.74 | 7.8372e-06 2.146e-08 | d yr |
n | .2636351219504086 | 1.5131e-09 | deg/d |
Q | 2.738347752630597 | 1.0478e-08 | au |
|
| | Orbit Determination Parameters
Additional Information
|